This is the latest recevied weather packets stored in our database for station/object IZ5TJI-3. If no packets are shown the sender has not sent any weather packets the latest 10 day(s).
| Time | Temp. | Humidity | Pressure | Rain* | Wind** | Luminosity | Snow |
|---|---|---|---|---|---|---|---|
| 1777443329 | 10.56° C | 86% | 1014.6 hPa | 0 mm | - | - | - |
| 1777442429 | 10° C | 88% | 1014.7 hPa | 0 mm | - | - | - |
| 1777441529 | 8.89° C | 89% | 1014.7 hPa | 0 mm | - | - | - |
| 1777440630 | 8.33° C | 89% | 1014.6 hPa | 0 mm | - | - | - |
| 1777439730 | 7.22° C | 89% | 1014.4 hPa | 0 mm | - | - | - |
| 1777438863 | 6.67° C | 88% | 1014.3 hPa | 0 mm | - | - | - |
| 1777438830 | 6.67° C | 88% | 1014.3 hPa | 0 mm | - | - | - |
| 1777437930 | 6.11° C | 88% | 1014.4 hPa | 0 mm | - | - | - |
| 1777437030 | 6.11° C | 87% | 1014.2 hPa | 0 mm | - | - | - |
| 1777436130 | 6.11° C | 87% | 1014.4 hPa | 0 mm | - | - | - |
| 1777435230 | 6.67° C | 87% | 1014.4 hPa | 0 mm | - | - | - |
| 1777434330 | 6.67° C | 87% | 1014.5 hPa | 0 mm | - | - | - |
| 1777433430 | 6.67° C | 87% | 1014.4 hPa | 0 mm | - | - | - |
| 1777432530 | 6.67° C | 87% | 1014.3 hPa | 0 mm | - | - | - |
| 1777431630 | 7.22° C | 86% | 1014.5 hPa | 0 mm | - | - | - |
| 1777430730 | 6.67° C | 85% | 1014.5 hPa | 0 mm | - | - | - |
| 1777429830 | 7.22° C | 85% | 1014.5 hPa | 0 mm | - | - | - |
| 1777428930 | 7.22° C | 85% | 1014.2 hPa | 0 mm | - | - | - |
| 1777428030 | 7.78° C | 85% | 1014.1 hPa | 0 mm | - | - | - |
| 1777427130 | 7.78° C | 85% | 1014.2 hPa | 0 mm | - | - | - |
| 1777426230 | 7.78° C | 85% | 1013.9 hPa | 0 mm | - | - | - |
| 1777425330 | 8.33° C | 85% | 1014 hPa | 0 mm | - | - | - |
| 1777424430 | 8.33° C | 84% | 1014 hPa | 0 mm | - | - | - |
| 1777423530 | 8.33° C | 83% | 1014.2 hPa | 0 mm | - | - | - |
| 1777422630 | 8.89° C | 82% | 1014.1 hPa | 0 mm | - | - | - |
* Rain latest hour (hover to see other rain measurements)
** Current wind speed in m/s (hover to see current wind gust speed)